W0KHZ Weather Reports


time (UTC)temp
C
wind
direction
speed
KPH
gust
KPH
rain 1hr
cm
rain 24hr
cm
rain mn
cm
humidity
%
barometer
mb
20260506051026 2 0.0 0.0 0.00 0.00 0.00 72 1010.1
20260506050524 2 0.0 0.0 0.00 0.00 0.00 72 1010.1
20260506045040 3 0.0 0.0 0.00 0.00 0.00 69 1009.9
20260506044517 3 300 0.0 3.2 0.00 0.00 0.00 70 1009.9
20260506044034 3 0.0 0.0 0.00 0.00 0.00 70 1009.9
20260506043532 3 0.0 0.0 0.00 0.00 0.00 69 1009.9
20260506043031 3 0.0 0.0 0.00 0.00 0.00 68 1010.0
20260506042529 3 0.0 0.0 0.00 0.00 0.00 69 1009.9
20260506042027 3 299 0.0 1.6 0.00 0.00 0.00 69 1009.9
20260506041525 3 0.0 0.0 0.00 0.00 0.00 69 1009.9
20260506041104 3 0.0 0.0 0.00 0.00 0.00 67 1009.8
20260506040522 4 0.0 0.0 0.00 0.00 0.00 66 1009.9
20260506040020 4 0.0 0.0 0.00 0.00 0.00 67 1009.9
20260506035519 4 300 0.0 1.6 0.00 0.00 0.00 66 1009.9
20260506035016 5 299 0.0 3.2 0.00 0.00 0.00 66 1009.9
20260506034554 5 0.0 0.0 0.00 0.00 0.00 65 1009.8
20260506034032 5 0.0 0.0 0.00 0.00 0.00 61 1009.8
20260506033531 5 0.0 0.0 0.00 0.00 0.00 61 1009.7
20260506033028 5 0.0 0.0 0.00 0.00 0.00 62 1009.7
20260506032527 5 0.0 0.0 0.00 0.00 0.00 63 1009.7
20260506032025 6 292 0.0 1.6 0.00 0.00 0.00 62 1009.7
20260506031523 6 0.0 0.0 0.00 0.00 0.00 61 1009.7
20260506031021 6 292 0.0 1.6 0.00 0.00 0.00 61 1009.8
20260506030519 6 293 0.0 1.6 0.00 0.00 0.00 60 1009.7
20260506030018 6 293 0.0 1.6 0.00 0.00 0.00 61 1009.7
20260506025535 6 292 0.0 1.6 0.00 0.00 0.00 61 1009.7
20260506025052 6 292 0.0 1.6 0.00 0.00 0.00 58 1009.6
20260506024530 6 292 0.0 1.6 0.00 0.00 0.00 59 1009.6
20260506024028 6 0.0 0.0 0.00 0.00 0.00 58 1009.5
20260506023526 6 0.0 0.0 0.00 0.00 0.00 58 1009.5
20260506023025 6 292 0.0 1.6 0.00 0.00 0.00 56 1009.4
20260506022522 6 292 0.0 1.6 0.00 0.00 0.00 55 1009.3
20260506022021 6 0.0 0.0 0.00 0.00 0.00 55 1009.3
20260506021519 6 0.0 0.0 0.00 0.00 0.00 53 1009.2
20260506021017 7 0.0 0.0 0.00 0.00 0.00 53 1009.2
20260506020554 7 0.0 0.0 0.00 0.00 0.00 52 1009.1
20260506020032 7 0.0 0.0 0.00 0.00 0.00 51 1009.0
20260506015550 7 0.0 0.0 0.00 0.00 0.00 51 1009.1
20260506015028 7 0.0 0.0 0.00 0.00 0.00 49 1008.8
20260506014526 7 0.0 0.0 0.00 0.00 0.00 49 1008.8
20260506014044 7 0.0 0.0 0.00 0.00 0.00 47 1008.9
20260506013523 8 0.0 0.0 0.00 0.00 0.00 46 1008.9
20260506013021 8 292 0.0 3.2 0.00 0.00 0.00 45 1008.8
20260506012519 8 292 0.0 9.7 0.00 0.00 0.00 44 1008.8
20260506012017 8 306 0.0 1.6 0.00 0.00 0.00 43 1008.8
20260506011534 8 304 0.0 3.2 0.00 0.00 0.00 43 1008.6
20260506011032 8 297 0.0 1.6 0.00 0.00 0.00 43 1008.7
20260506010530 9 297 0.0 3.2 0.00 0.00 0.00 42 1008.7
20260506010028 9 298 0.0 3.2 0.00 0.00 0.00 42 1008.5
20260506005546 9 308 1.6 4.8 0.00 0.00 0.00 41 1008.5
20260506005024 10 300 3.2 6.4 0.00 0.00 0.00 41 1008.5
20260506004522 10 304 1.6 9.7 0.00 0.00 0.00 41 1008.4
20260506004020 10 320 1.6 3.2 0.00 0.00 0.00 40 1008.4
20260506003518 10 319 1.6 4.8 0.00 0.00 0.00 40 1008.4
20260506003016 10 302 4.8 12.9 0.00 0.00 0.00 41 1008.4
20260506002533 10 279 3.2 9.7 0.00 0.00 0.00 40 1008.3
20260506002051 10 295 1.6 9.7 0.00 0.00 0.00 40 1008.2
20260506001529 10 293 0.0 6.4 0.00 0.00 0.00 40 1008.2
20260506001027 10 302 0.0 1.6 0.00 0.00 0.00 40 1008.2
20260506000525 10 302 1.6 4.8 0.00 0.00 0.00 40 1008.2
20260506000043 10 300 0.0 1.6 0.00 0.00 0.00 39 1008.1
20260505235542 10 296 3.2 9.7 0.00 0.00 0.00 39 1008.1
20260505235020 10 291 1.6 4.8 0.00 0.00 0.00 38 1008.2
20260505234518 10 290 1.6 9.7 0.00 0.00 0.00 38 1008.2
20260505234035 10 311 4.8 17.7 0.00 0.00 0.00 38 1008.2
20260505233533 10 282 3.2 9.7 0.00 0.00 0.00 38 1008.1
20260505233031 10 289 3.2 9.7 0.00 0.00 0.00 38 1008.1
20260505232549 10 316 1.6 4.8 0.00 0.00 0.00 38 1008.1
20260505232028 10 308 3.2 9.7 0.00 0.00 0.00 37 1008.2
20260505231526 10 305 3.2 12.9 0.00 0.00 0.00 38 1008.2
20260505231024 10 294 3.2 11.3 0.00 0.00 0.00 37 1008.1
20260505230522 10 305 3.2 11.3 0.00 0.00 0.00 38 1008.1
20260505230101 10 324 3.2 11.3 0.00 0.00 0.00 38 1008.2
20260505225519 11 305 3.2 6.4 0.00 0.00 0.00 38 1008.2
20260505225016 11 303 3.2 17.7 0.00 0.00 0.00 37 1008.2
20260505224534 11 335 4.8 9.7 0.00 0.00 0.00 37 1008.2
20260505224032 11 304 3.2 9.7 0.00 0.00 0.00 37 1008.3
20260505223530 11 306 4.8 16.1 0.00 0.00 0.00 37 1008.3
20260505223048 11 299 4.8 9.7 0.00 0.00 0.00 37 1008.2
20260505222527 11 293 4.8 11.3 0.00 0.00 0.00 37 1008.2
20260505222025 11 322 3.2 9.7 0.00 0.00 0.00 37 1008.2
20260505221523 11 310 4.8 17.7 0.00 0.00 0.00 37 1008.3
20260505221021 11 292 3.2 9.7 0.00 0.00 0.00 37 1008.0
20260505220520 11 326 1.6 6.4 0.00 0.00 0.00 37 1008.0
20260505220018 11 278 3.2 4.8 0.00 0.00 0.00 36 1008.2
20260505215555 11 314 4.8 12.9 0.00 0.00 0.00 36 1008.3
20260505215032 11 329 4.8 11.3 0.00 0.00 0.00 36 1008.2
20260505214530 11 315 4.8 12.9 0.00 0.00 0.00 36 1008.2
20260505214028 11 303 4.8 20.9 0.00 0.00 0.00 36 1008.2
20260505213526 11 10 3.2 6.4 0.00 0.00 0.00 36 1008.1
20260505213044 11 299 3.2 14.5 0.00 0.00 0.00 36 1008.2
20260505212522 11 309 3.2 11.3 0.00 0.00 0.00 36 1008.2
20260505212020 11 346 4.8 14.5 0.00 0.00 0.00 37 1008.2
20260505211518 11 283 3.2 12.9 0.00 0.00 0.00 36 1008.2
20260505211016 12 327 4.8 14.5 0.00 0.00 0.00 35 1008.2
20260505210553 12 320 4.8 16.1 0.00 0.00 0.00 36 1008.1
20260505210031 12 292 4.8 11.3 0.00 0.00 0.00 35 1008.2
20260505205529 12 260 4.8 11.3 0.00 0.00 0.00 36 1008.3
20260505205028 12 297 4.8 11.3 0.00 0.00 0.00 35 1008.2
20260505204526 12 327 4.8 12.9 0.00 0.00 0.00 35 1008.3
20260505204044 12 243 4.8 17.7 0.00 0.00 0.00 34 1008.4
20260505203522 13 322 4.8 16.1 0.00 0.00 0.00 33 1008.4
20260505203021 13 226 6.4 20.9 0.00 0.00 0.00 35 1008.3
20260505202519 12 307 6.4 17.7 0.00 0.00 0.00 35 1008.3
20260505202017 12 322 6.4 12.9 0.00 0.00 0.00 35 1008.3
20260505201555 12 294 6.4 16.1 0.00 0.00 0.00 33 1008.4
20260505201032 12 308 6.4 33.8 0.00 0.00 0.00 35 1008.3
20260505200531 12 312 6.4 20.9 0.00 0.00 0.00 35 1008.4
20260505200029 12 289 6.4 22.5 0.00 0.00 0.00 36 1008.4
20260505195527 12 259 6.4 24.1 0.00 0.00 0.00 35 1008.4
20260505195025 12 307 4.8 12.9 0.00 0.00 0.00 36 1008.4
20260505194524 12 329 4.8 22.5 0.00 0.00 0.00 35 1008.5
20260505194022 12 290 6.4 16.1 0.00 0.00 0.00 35 1008.5
20260505193520 12 314 6.4 22.5 0.00 0.00 0.00 33 1008.3
20260505193038 13 318 6.4 24.1 0.00 0.00 0.00 34 1008.3
20260505192516 13 294 4.8 17.7 0.00 0.00 0.00 35 1008.4
20260505192034 12 213 8.0 20.9 0.00 0.00 0.00 37 1008.5
20260505191552 12 295 4.8 12.9 0.00 0.00 0.00 37 1008.4
20260505191030 11 317 6.4 20.9 0.00 0.00 0.00 36 1008.5
20260505190548 11 299 8.0 17.7 0.00 0.00 0.00 36 1008.6
20260505190027 11 298 6.4 20.9 0.00 0.00 0.00 35 1008.6
20260505185525 11 291 3.2 16.1 0.00 0.00 0.00 36 1008.6
20260505185023 11 307 6.4 17.7 0.00 0.00 0.00 35 1008.6
20260505184521 11 281 3.2 12.9 0.00 0.00 0.00 36 1008.7
20260505184020 11 274 4.8 14.5 0.00 0.00 0.00 38 1008.7
20260505183518 11 274 4.8 16.1 0.00 0.00 0.00 37 1008.6
20260505183056 11 283 3.2 9.7 0.00 0.00 0.00 38 1008.5
20260505182533 11 301 6.4 16.1 0.00 0.00 0.00 37 1008.5
20260505182032 11 289 3.2 14.5 0.00 0.00 0.00 37 1008.6
20260505181530 11 326 4.8 17.7 0.00 0.00 0.00 36 1008.5
20260505181028 11 317 9.7 22.5 0.00 0.00 0.00 36 1008.6
20260505180546 11 265 6.4 25.7 0.00 0.00 0.00 39 1008.4
20260505180024 11 282 3.2 11.3 0.00 0.00 0.00 39 1008.4
20260505175543 11 318 3.2 11.3 0.00 0.00 0.00 38 1008.5
20260505175021 11 330 6.4 16.1 0.00 0.00 0.00 37 1008.4
20260505174539 11 311 4.8 16.1 0.00 0.00 0.00 37 1008.5
20260505174018 11 309 6.4 24.1 0.00 0.00 0.00 36 1008.5
20260505173529 11 287 6.4 12.9 0.00 0.00 0.00 37 1008.4
20260505173027 11 286 6.4 14.5 0.00 0.00 0.00 37 1008.5
20260505172525 11 308 4.8 14.5 0.00 0.00 0.00 38 1008.6
20260505172024 11 299 6.4 12.9 0.00 0.00 0.00 38 1008.5
20260505171522 11 285 4.8 14.5 0.00 0.00 0.00 37 1008.4
20260505171020 10 299 4.8 14.5 0.00 0.00 0.00 37 1008.5
20260505170519 11 319 8.0 24.1 0.00 0.00 0.00 35 1008.4
20260505170017 11 328 8.0 30.6 0.00 0.00 0.00 36 1008.4
20260505165554 11 310 4.8 14.5 0.00 0.00 0.00 37 1008.4
20260505165032 11 320 6.4 22.5 0.00 0.00 0.00 36 1008.6
20260505164530 11 327 6.4 14.5 0.00 0.00 0.00 38 1008.5
20260505164048 11 295 4.8 11.3 0.00 0.00 0.00 37 1008.5
20260505163547 11 312 8.0 24.1 0.00 0.00 0.00 37 1008.6
20260505163025 11 305 4.8 14.5 0.00 0.00 0.00 36 1008.7
20260505162523 11 296 8.0 20.9 0.00 0.00 0.00 38 1008.6
20260505162102 11 305 6.4 17.7 0.00 0.00 0.00 37 1008.7
20260505161520 11 320 6.4 14.5 0.00 0.00 0.00 37 1008.6
20260505161018 11 307 4.8 16.1 0.00 0.00 0.00 36 1008.7
20260505160516 11 291 4.8 14.5 0.00 0.00 0.00 38 1008.5
20260505153043 10 311 4.8 14.5 0.00 0.00 0.00 39 1008.2
20260505152521 10 250 4.8 12.9 0.00 0.00 0.00 41 1008.2
20260505152019 10 322 3.2 14.5 0.00 0.00 0.00 39 1008.3
20260505151518 10 311 3.2 11.3 0.00 0.00 0.00 41 1008.1
20260505151035 10 312 3.2 17.7 0.00 0.00 0.00 40 1008.1
20260505150533 10 337 3.2 11.3 0.00 0.00 0.00 40 1008.1
20260505140551 8 308 4.8 14.5 0.00 0.00 0.00 49 1008.4
20260505125023 4 327 1.6 4.8 0.00 0.00 0.00 63 1008.0
20260505124542 4 319 1.6 3.2 0.00 0.00 0.00 64 1008.0
20260505124020 3 317 0.0 1.6 0.00 0.00 0.00 64 1007.7
20260505123518 3 314 0.0 1.6 0.00 0.00 0.00 65 1007.7
20260505123016 3 325 1.6 6.4 0.00 0.00 0.00 65 1007.7
20260505122534 3 310 0.0 4.8 0.00 0.00 0.00 65 1007.6
20260505122032 3 327 0.0 1.6 0.00 0.00 0.00 66 1007.5
20260505121550 3 328 0.0 1.6 0.00 0.00 0.00 66 1007.5
20260505121028 3 327 0.0 4.8 0.00 0.00 0.00 67 1007.3
20260505120527 2 0.0 0.0 0.00 0.00 0.00 68 1007.3
20260505120025 2 0.0 0.0 0.00 0.00 0.00 70 1007.1
20260505115523 2 0.0 0.0 0.00 0.00 0.00 72 1007.1
20260505115042 1 0.0 0.0 0.00 0.00 0.00 73 1006.8
20260505114519 1 0.0 0.0 0.00 0.00 0.00 73 1006.8
20260505114018 1 0.0 0.0 0.00 0.00 0.00 73 1006.6
20260505113516 1 311 1.6 3.2 0.00 0.00 0.00 73 1006.5
20260505113033 1 295 1.6 4.8 0.00 0.00 0.00 73 1006.4
20260505112531 1 295 1.6 3.2 0.00 0.00 0.00 73 1006.3
20260505112030 1 299 1.6 4.8 0.00 0.00 0.00 72 1006.2
20260505111528 1 327 1.6 3.2 0.00 0.00 0.00 71 1006.2
20260505111026 2 327 0.0 3.2 0.00 0.00 0.00 70 1006.4
20260505110525 2 327 0.0 1.6 0.00 0.00 0.00 68 1006.3
20260505102027 3 0.0 0.0 0.00 0.00 0.00 62 1005.8
20260505101525 3 0.0 0.0 0.00 0.00 0.00 62 1005.9
20260505101024 3 322 0.0 3.2 0.00 0.00 0.00 62 1005.8
20260505100522 3 327 1.6 3.2 0.00 0.00 0.00 63 1005.7
20260505100021 3 324 1.6 9.7 0.00 0.00 0.00 63 1005.5
20260505095539 3 0.0 0.0 0.00 0.00 0.00 63 1005.5
20260505095017 3 0.0 0.0 0.00 0.00 0.00 62 1005.4
20260505094534 3 0.0 0.0 0.00 0.00 0.00 61 1005.5
20260505094032 4 0.0 0.0 0.00 0.00 0.00 61 1005.4
20260505093531 4 321 0.0 1.6 0.00 0.00 0.00 62 1005.3
20260505093029 4 321 1.6 3.2 0.00 0.00 0.00 61 1005.3
20260505092527 5 0.0 0.0 0.00 0.00 0.00 59 1005.2
20260505092025 5 321 0.0 3.2 0.00 0.00 0.00 58 1005.3
20260505091524 5 321 1.6 3.2 0.00 0.00 0.00 57 1005.1
20260505091022 5 318 0.0 3.2 0.00 0.00 0.00 57 1005.2
20260505090520 5 312 0.0 1.6 0.00 0.00 0.00 57 1005.2
20260505090018 5 313 1.6 4.8 0.00 0.00 0.00 57 1005.1
20260505085517 5 292 0.0 4.8 0.00 0.00 0.00 58 1005.0
20260505085034 5 0.0 0.0 0.00 0.00 0.00 58 1005.0
20260505084532 5 297 1.6 4.8 0.00 0.00 0.00 59 1005.0
20260505084030 5 296 1.6 4.8 0.00 0.00 0.00 60 1004.9
20260505083529 5 302 1.6 6.4 0.00 0.00 0.00 60 1004.7
20260505083027 5 306 0.0 3.2 0.00 0.00 0.00 61 1004.7
20260505082525 4 306 0.0 1.6 0.00 0.00 0.00 62 1004.7
20260505082024 4 0.0 0.0 0.00 0.00 0.00 63 1004.5
20260505081522 4 306 0.0 1.6 0.00 0.00 0.00 64 1004.4
20260505081020 4 0.0 0.0 0.00 0.00 0.00 64 1004.4
20260505080519 4 306 0.0 1.6 0.00 0.00 0.00 62 1004.2
20260505080037 4 0.0 0.0 0.00 0.00 0.00 61 1004.2
20260505075534 4 0.0 0.0 0.00 0.00 0.00 63 1004.3
20260505075032 5 0.0 0.0 0.00 0.00 0.00 63 1004.2
20260505074530 5 0.0 0.0 0.00 0.00 0.00 62 1004.2
20260505074029 5 0.0 0.0 0.00 0.00 0.00 62 1004.1
20260505073527 5 0.0 0.0 0.00 0.00 0.00 62 1004.1
20260505073025 5 0.0 0.0 0.00 0.00 0.00 59 1004.1
20260505072523 6 0.0 0.0 0.00 0.00 0.00 58 1004.1
20260505072022 6 0.0 0.0 0.00 0.00 0.00 55 1004.2
20260505071520 6 0.0 0.0 0.00 0.00 0.00 52 1004.2
20260505071019 6 0.0 0.0 0.00 0.00 0.00 53 1004.1
20260505070517 6 0.0 0.0 0.00 0.00 0.00 54 1004.2
20260505070034 6 0.0 0.0 0.00 0.00 0.00 53 1004.3
20260505065532 6 0.0 0.0 0.00 0.00 0.00 52 1004.2
20260505065030 6 0.0 0.0 0.00 0.00 0.00 51 1004.1
20260505064529 6 0.0 0.0 0.00 0.00 0.00 51 1004.2
20260505064047 6 0.0 0.0 0.00 0.00 0.00 50 1004.3
20260505063525 7 306 0.0 1.6 0.00 0.00 0.00 50 1004.2
20260505063023 7 306 0.0 3.2 0.00 0.00 0.00 50 1004.4
20260505062522 7 306 0.0 1.6 0.00 0.00 0.00 50 1004.3
20260505062020 7 306 1.6 3.2 0.00 0.00 0.00 50 1004.3
20260505061518 7 0.0 0.0 0.00 0.00 0.00 50 1004.4
20260505061016 7 307 0.0 1.6 0.00 0.00 0.00 50 1004.4
20260505060534 7 0.0 0.0 0.00 0.00 0.00 50 1004.5
20260505060032 7 307 0.0 1.6 0.00 0.00 0.00 50 1004.4